Tracking 18852 objects as of 23-Nov-2017
HD Live streaming from Space Station
objects crossing your sky now

COSMOS 1013

Track COSMOS 1013 now!
10-day predictions
COSMOS 1013 is classified as:


NORAD ID: 10930
Int'l Code: 1978-056A
Perigee: 1,484.8 km
Apogee: 1,561.6 km
Inclination: 74.0 °
Period: 116.3 minutes
Semi major axis: 7894 km
RCS: 0.7053 m2 (medium)
Launch date: June 7, 1978
Source: Commonwealth of Independent States (former USSR) (CIS)
Launch site: PLESETSK MISSILE AND SPACE COMPLEX (PKMTR)
aabbcc
Your satellite tracking list
Your tracking list is empty




NASA's NSSDC Master Catalog

Two Line Element Set (TLE):
1 10930U 78056A   17327.21588530 -.00000013  00000-0  22763-4 0  9990
2 10930  74.0266 233.7502 0048621 317.6116 155.6635 12.37777433783315
Source of the keplerian elements: AFSPC